FW9231 Weather Reports


time (UTC)temp
C
wind
direction
speed
KPH
gust
KPH
rain 1hr
cm
rain 24hr
cm
rain mn
cm
humidity
%
barometer
mb
20260505092820 12 219 0.0 0.0 0.00 0.00 0.00 83 1014.1
20260505092319 12 219 0.0 0.0 0.00 0.00 0.00 82 1014.0
20260505091816 12 219 0.0 0.0 0.00 0.00 0.00 82 1014.1
20260505091314 12 218 0.0 0.0 0.00 0.00 0.00 81 1014.2
20260505090812 12 218 0.0 0.0 0.00 0.00 0.00 80 1013.9
20260505090310 12 218 0.0 0.0 0.00 0.00 0.00 79 1014.0
20260505085807 12 218 0.0 0.0 0.00 0.00 0.00 79 1013.7
20260505085305 13 219 0.0 0.0 0.00 0.00 0.00 78 1014.0
20260505084802 13 221 0.0 0.0 0.00 0.00 0.00 77 1013.8
20260505084301 13 214 0.0 0.0 0.00 0.00 0.00 77 1013.9
20260505083757 13 212 0.0 0.0 0.00 0.00 0.00 77 1013.7
20260505083254 13 202 0.0 0.0 0.00 0.00 0.00 76 1013.7
20260505082750 13 218 0.0 0.0 0.00 0.00 0.00 76 1013.8
20260505082248 13 218 0.0 0.0 0.00 0.00 0.00 75 1013.6
20260505081743 13 220 0.0 0.0 0.00 0.00 0.00 75 1013.6
20260505081241 13 218 0.0 0.0 0.00 0.00 0.00 74 1013.6
20260505080738 13 217 0.0 0.0 0.00 0.00 0.00 73 1013.7
20260505080233 13 211 0.0 0.0 0.00 0.00 0.00 73 1013.5
20260505075729 13 216 0.0 0.0 0.00 0.00 0.00 73 1013.5
20260505075226 13 210 0.0 0.0 0.00 0.00 0.00 72 1013.5
20260505074724 14 226 0.0 0.0 0.00 0.00 0.00 72 1013.5
20260505074221 14 216 0.0 0.0 0.00 0.00 0.00 71 1013.6
20260505073718 14 220 0.0 0.0 0.00 0.00 0.00 71 1013.6
20260505073216 14 221 0.0 0.0 0.00 0.00 0.00 70 1013.6
20260505072712 14 218 0.0 0.0 0.00 0.00 0.00 70 1013.6
20260505072208 14 222 0.0 0.0 0.00 0.00 0.00 70 1013.5
20260505071704 14 218 0.0 0.0 0.00 0.00 0.00 69 1013.6
20260505071201 15 219 0.0 0.0 0.00 0.00 0.00 68 1013.5
20260505070659 15 190 0.0 0.0 0.00 0.00 0.00 68 1013.5
20260505070155 15 226 0.0 1.6 0.00 0.00 0.00 67 1013.4
20260505065650 15 211 0.0 0.0 0.00 0.00 0.00 67 1013.4
20260505065148 15 218 0.0 0.0 0.00 0.00 0.00 67 1013.6
20260505064644 15 250 1.6 1.6 0.00 0.00 0.00 66 1013.6
20260505064143 15 217 0.0 0.0 0.00 0.00 0.00 66 1013.4
20260505063640 15 221 0.0 0.0 0.00 0.00 0.00 65 1013.5
20260505063136 15 212 0.0 0.0 0.00 0.00 0.00 65 1013.6
20260505062633 15 222 0.0 0.0 0.00 0.00 0.00 64 1013.5
20260505062130 15 231 1.6 1.6 0.00 0.00 0.00 64 1013.4
20260505061627 15 211 0.0 0.0 0.00 0.00 0.00 64 1013.6
20260505061125 15 202 0.0 0.0 0.00 0.00 0.00 63 1013.6
20260505060622 15 232 0.0 0.0 0.00 0.00 0.00 63 1013.6
20260505060119 15 218 0.0 0.0 0.00 0.00 0.00 63 1013.8
20260505055614 16 199 1.6 1.6 0.00 0.00 0.00 63 1013.8
20260505055111 16 209 0.0 0.0 0.00 0.00 0.00 62 1013.5
20260505054608 16 210 0.0 0.0 0.00 0.00 0.00 61 1013.7
20260505054106 16 200 1.6 1.6 0.00 0.00 0.00 61 1013.7
20260505053603 16 211 1.6 1.6 0.00 0.00 0.00 61 1013.8
20260505053100 16 208 0.0 1.6 0.00 0.00 0.00 60 1013.6
20260505052556 16 209 0.0 0.0 0.00 0.00 0.00 60 1013.5
20260505052054 16 227 0.0 1.6 0.00 0.00 0.00 59 1013.9
20260505051551 16 196 1.6 1.6 0.00 0.00 0.00 59 1013.8
20260505051049 16 216 0.0 0.0 0.00 0.00 0.00 58 1013.8
20260505050547 16 208 0.0 0.0 0.00 0.00 0.00 57 1013.8
20260505041515 16 212 0.0 0.0 0.00 0.00 0.00 52 1013.8
20260505041012 16 212 0.0 0.0 0.00 0.00 0.00 52 1013.7
20260505040509 16 222 0.0 0.0 0.00 0.00 0.00 51 1013.8
20260505040007 16 218 0.0 0.0 0.00 0.00 0.00 51 1013.8
20260505035502 16 212 0.0 0.0 0.00 0.00 0.00 52 1013.9
20260505034959 16 218 0.0 0.0 0.00 0.00 0.00 52 1014.0
20260505034455 16 218 0.0 0.0 0.00 0.00 0.00 52 1013.7
20260505033953 17 228 0.0 0.0 0.00 0.00 0.00 51 1014.0
20260505033449 17 212 0.0 0.0 0.00 0.00 0.00 51 1013.9
20260505032948 17 209 0.0 0.0 0.00 0.00 0.00 50 1014.0
20260505032445 17 214 0.0 0.0 0.00 0.00 0.00 50 1014.0
20260505031941 17 214 0.0 0.0 0.00 0.00 0.00 50 1013.9
20260505031438 17 228 0.0 0.0 0.00 0.00 0.00 48 1014.0
20260505030935 17 221 0.0 0.0 0.00 0.00 0.00 48 1013.7
20260505030431 18 210 0.0 0.0 0.00 0.00 0.00 48 1014.1
20260505025926 18 212 0.0 0.0 0.00 0.00 0.00 47 1014.0
20260505025424 18 219 0.0 0.0 0.00 0.00 0.00 46 1013.9
20260505024923 18 214 0.0 0.0 0.00 0.00 0.00 47 1013.9
20260505024420 18 207 0.0 0.0 0.00 0.00 0.00 46 1013.8
20260505023917 18 202 1.6 1.6 0.00 0.00 0.00 46 1014.0
20260505023414 18 219 1.6 1.6 0.00 0.00 0.00 45 1013.8
20260505022911 18 216 0.0 0.0 0.00 0.00 0.00 45 1013.6
20260505022408 18 213 0.0 0.0 0.00 0.00 0.00 45 1013.7
20260505021905 18 245 0.0 1.6 0.00 0.00 0.00 45 1014.0
20260505021401 18 214 1.6 1.6 0.00 0.00 0.00 46 1013.8
20260505020857 17 206 0.0 0.0 0.00 0.00 0.00 47 1013.8
20260505020353 17 219 0.0 0.0 0.00 0.00 0.00 49 1013.6
20260505015850 17 219 0.0 0.0 0.00 0.00 0.00 50 1013.4
20260505015347 17 220 0.0 0.0 0.00 0.00 0.00 52 1013.5
20260505014845 17 202 0.0 0.0 0.00 0.00 0.00 51 1013.4
20260505014341 17 219 0.0 0.0 0.00 0.00 0.00 51 1013.5
20260505013838 17 216 0.0 0.0 0.00 0.00 0.00 51 1013.4
20260505013335 17 216 0.0 0.0 0.00 0.00 0.00 50 1013.5
20260505012834 17 216 0.0 0.0 0.00 0.00 0.00 49 1013.4
20260505012331 17 216 0.0 0.0 0.00 0.00 0.00 48 1013.3
20260505011827 17 216 0.0 0.0 0.00 0.00 0.00 47 1013.1
20260505011324 18 216 0.0 0.0 0.00 0.00 0.00 47 1013.3
20260505010820 18 216 0.0 0.0 0.00 0.00 0.00 47 1013.2
20260505010316 18 216 0.0 0.0 0.00 0.00 0.00 45 1013.2
20260505005812 18 216 0.0 0.0 0.00 0.00 0.00 45 1013.1
20260505005309 18 216 0.0 0.0 0.00 0.00 0.00 46 1012.8
20260505004807 18 216 0.0 0.0 0.00 0.00 0.00 44 1012.9
20260505004302 19 216 0.0 0.0 0.00 0.00 0.00 43 1012.9
20260505003800 19 216 0.0 0.0 0.00 0.00 0.00 43 1012.7
20260505003258 20 214 0.0 0.0 0.00 0.00 0.00 43 1012.8
20260505002754 20 212 0.0 0.0 0.00 0.00 0.00 41 1012.6
20260505002251 20 212 0.0 0.0 0.00 0.00 0.00 42 1012.8
20260505001749 20 212 0.0 0.0 0.00 0.00 0.00 41 1012.6
20260505001246 21 212 0.0 0.0 0.00 0.00 0.00 40 1012.4
20260505000743 21 212 0.0 0.0 0.00 0.00 0.00 39 1012.6
20260505000241 21 212 0.0 0.0 0.00 0.00 0.00 40 1012.6
20260504235737 22 212 0.0 0.0 0.00 0.00 0.00 37 1012.5
20260504235233 22 180 0.0 0.0 0.00 0.00 0.00 36 1012.5
20260504234731 22 216 0.0 0.0 0.00 0.00 0.00 35 1012.4
20260504234228 22 219 0.0 0.0 0.00 0.00 0.00 35 1012.4
20260504233724 22 221 0.0 0.0 0.00 0.00 0.00 34 1012.2
20260504233220 23 218 0.0 0.0 0.00 0.00 0.00 33 1012.3
20260504232717 23 210 0.0 1.6 0.00 0.00 0.00 33 1012.2
20260504232214 23 211 0.0 0.0 0.00 0.00 0.00 32 1012.2
20260504231711 23 234 0.0 1.6 0.00 0.00 0.00 34 1012.1
20260504231207 23 213 0.0 0.0 0.00 0.00 0.00 32 1012.1
20260504230703 23 249 3.2 4.8 0.00 0.00 0.00 31 1012.3
20260504230202 24 224 0.0 1.6 0.00 0.00 0.00 31 1012.1
20260504225700 24 210 0.0 0.0 0.00 0.00 0.00 31 1012.1
20260504225156 24 241 0.0 1.6 0.00 0.00 0.00 29 1012.4
20260504224653 24 249 1.6 1.6 0.00 0.00 0.00 30 1012.1
20260504224150 25 281 3.2 4.8 0.00 0.00 0.00 29 1012.1
20260504223647 25 212 0.0 0.0 0.00 0.00 0.00 30 1012.2
20260504223142 25 211 0.0 0.0 0.00 0.00 0.00 30 1012.3
20260504222640 25 220 0.0 1.6 0.00 0.00 0.00 29 1012.2
20260504222137 25 23 3.2 4.8 0.00 0.00 0.00 28 1012.3
20260504221634 25 259 1.6 1.6 0.00 0.00 0.00 29 1012.1
20260504221131 25 229 1.6 3.2 0.00 0.00 0.00 28 1012.2
20260504220627 25 10 1.6 3.2 0.00 0.00 0.00 27 1012.1
20260504220125 25 230 1.6 1.6 0.00 0.00 0.00 29 1012.2
20260504215621 25 225 0.0 0.0 0.00 0.00 0.00 29 1012.1
20260504215119 25 297 3.2 3.2 0.00 0.00 0.00 28 1012.3
20260504214614 25 231 1.6 1.6 0.00 0.00 0.00 27 1012.2
20260504214111 25 196 1.6 3.2 0.00 0.00 0.00 28 1011.9
20260504213607 25 236 0.0 1.6 0.00 0.00 0.00 29 1012.0
20260504213104 26 269 1.6 3.2 0.00 0.00 0.00 27 1012.2
20260504212600 25 222 0.0 0.0 0.00 0.00 0.00 28 1012.4
20260504212058 25 218 0.0 0.0 0.00 0.00 0.00 28 1012.3
20260504211555 25 277 4.8 4.8 0.00 0.00 0.00 25 1012.4
20260504211051 25 226 1.6 3.2 0.00 0.00 0.00 25 1012.0
20260504210549 25 238 0.0 1.6 0.00 0.00 0.00 27 1012.2
20260504210045 25 237 3.2 3.2 0.00 0.00 0.00 26 1012.4
20260504205543 25 240 0.0 0.0 0.00 0.00 0.00 27 1012.3
20260504205041 26 219 3.2 3.2 0.00 0.00 0.00 26 1012.2
20260504204538 26 225 0.0 0.0 0.00 0.00 0.00 28 1012.5
20260504204038 25 231 1.6 3.2 0.00 0.00 0.00 27 1012.5
20260504203535 26 199 3.2 4.8 0.00 0.00 0.00 27 1012.5
20260504203032 26 274 1.6 1.6 0.00 0.00 0.00 27 1012.5
20260504202528 26 190 1.6 1.6 0.00 0.00 0.00 26 1012.6
20260504202025 26 211 0.0 0.0 0.00 0.00 0.00 28 1012.7
20260504201522 26 206 1.6 3.2 0.00 0.00 0.00 27 1012.8
20260504201020 26 231 0.0 0.0 0.00 0.00 0.00 29 1013.0
20260504200516 27 201 1.6 1.6 0.00 0.00 0.00 28 1012.8
20260504200013 27 248 1.6 1.6 0.00 0.00 0.00 28 1013.0
20260504195509 26 233 0.0 1.6 0.00 0.00 0.00 30 1012.9
20260504195005 26 172 0.0 1.6 0.00 0.00 0.00 28 1012.7
20260504194502 26 199 1.6 1.6 0.00 0.00 0.00 28 1013.1
20260504193957 26 203 1.6 1.6 0.00 0.00 0.00 29 1013.0
20260504193455 26 229 1.6 1.6 0.00 0.00 0.00 29 1013.0
20260504192953 26 239 1.6 3.2 0.00 0.00 0.00 26 1013.1
20260504192450 26 353 1.6 3.2 0.00 0.00 0.00 27 1013.2
20260504191949 26 209 0.0 0.0 0.00 0.00 0.00 28 1013.6
20260504191447 26 344 3.2 3.2 0.00 0.00 0.00 28 1013.3
20260504190941 26 209 3.2 3.2 0.00 0.00 0.00 27 1013.6
20260504190438 25 240 3.2 3.2 0.00 0.00 0.00 28 1013.7
20260504185934 25 260 3.2 3.2 0.00 0.00 0.00 28 1013.7
20260504185432 25 211 0.0 1.6 0.00 0.00 0.00 28 1013.8
20260504184928 25 213 0.0 0.0 0.00 0.00 0.00 29 1013.9
20260504184424 25 210 0.0 1.6 0.00 0.00 0.00 32 1014.0
20260504183920 25 242 0.0 0.0 0.00 0.00 0.00 32 1014.0
20260504183417 25 256 4.8 4.8 0.00 0.00 0.00 29 1013.9
20260504182915 25 236 1.6 1.6 0.00 0.00 0.00 29 1013.8
20260504182412 25 223 0.0 0.0 0.00 0.00 0.00 29 1013.8
20260504181908 24 220 1.6 1.6 0.00 0.00 0.00 29 1014.0
20260504181406 25 233 1.6 1.6 0.00 0.00 0.00 32 1014.2
20260504180905 25 238 0.0 0.0 0.00 0.00 0.00 30 1014.1
20260504180403 25 220 0.0 0.0 0.00 0.00 0.00 29 1014.5
20260504175901 24 214 0.0 0.0 0.00 0.00 0.00 32 1014.5
20260504175357 23 208 0.0 1.6 0.00 0.00 0.00 32 1014.5
20260504174855 23 226 3.2 3.2 0.00 0.00 0.00 29 1014.5
20260504174352 23 199 0.0 0.0 0.00 0.00 0.00 33 1014.5
20260504173849 23 226 0.0 1.6 0.00 0.00 0.00 32 1014.3
20260504173346 23 220 0.0 0.0 0.00 0.00 0.00 34 1014.6
20260504172843 22 227 0.0 0.0 0.00 0.00 0.00 35 1014.5
20260504172340 22 246 1.6 1.6 0.00 0.00 0.00 35 1014.6
20260504171835 22 221 0.0 1.6 0.00 0.00 0.00 37 1014.3
20260504171333 22 323 4.8 8.0 0.00 0.00 0.00 36 1014.8
20260504170830 22 230 0.0 0.0 0.00 0.00 0.00 37 1014.8
20260504170327 22 218 0.0 0.0 0.00 0.00 0.00 36 1014.7
20260504160245 20 260 1.6 3.2 0.00 0.00 0.00 42 1015.7
20260504150710 17 205 0.0 0.0 0.00 0.00 0.00 49 1016.0
20260504150207 17 219 0.0 0.0 0.00 0.00 0.00 49 1016.2
20260504141136 15 234 1.6 1.6 0.00 0.00 0.00 57 1016.0
20260504140633 15 271 1.6 3.2 0.00 0.00 0.00 60 1016.1
20260504140129 15 214 0.0 0.0 0.00 0.00 0.00 61 1016.2
20260504130557 13 224 0.0 0.0 0.00 0.00 0.00 69 1016.0
20260504110445 7 212 0.0 0.0 0.00 0.00 0.00 86 1015.6
20260504100401 8 212 0.0 0.0 0.00 0.00 0.00 83 1015.3